owner,sensor,date,latitude,longitude,vertical_datum,sea_water_practical_salinity,qcFlag 
ENP,ioos.station.NOAA.NDBC:LRIF1:1,2017-12-01T00:00:00Z,25.2840,-80.8940,1.5,0.58,1111122 
ENP,ioos.station.NOAA.NDBC:LRIF1:1,2017-12-01T01:00:00Z,25.2840,-80.8940,1.5,0.62,1111122 
ENP,ioos.station.NOAA.NDBC:LRIF1:1,2017-12-01T02:00:00Z,25.2840,-80.8940,1.5,0.57,1111122 
ENP,ioos.station.NOAA.NDBC:LRIF1:1,2017-12-01T04:00:00Z,25.2840,-80.8940,1.5,0.51,1111122 
ENP,ioos.station.NOAA.NDBC:LRIF1:1,2017-12-01T05:00:00Z,25.2840,-80.8940,1.5,0.51,1111122 
ENP,ioos.station.NOAA.NDBC:LRIF1:1,2017-12-01T07:00:00Z,25.2840,-80.8940,1.5,0.5,1111122 
ENP,ioos.station.NOAA.NDBC:LRIF1:1,2017-12-01T08:00:00Z,25.2840,-80.8940,1.5,0.5,1111122 
ENP,ioos.station.NOAA.NDBC:LRIF1:1,2017-12-01T09:00:00Z,25.2840,-80.8940,1.5,0.5,1111122 
ENP,ioos.station.NOAA.NDBC:LRIF1:1,2017-12-01T10:00:00Z,25.2840,-80.8940,1.5,0.69,1111122 
ENP,ioos.station.NOAA.NDBC:LRIF1:1,2017-12-01T12:00:00Z,25.2840,-80.8940,1.5,1.37,1111122 
ENP,ioos.station.NOAA.NDBC:LRIF1:1,2017-12-01T13:00:00Z,25.2840,-80.8940,1.5,1.29,1111122 
ENP,ioos.station.NOAA.NDBC:LRIF1:1,2017-12-01T14:00:00Z,25.2840,-80.8940,1.5,1.16,1111122 
ENP,ioos.station.NOAA.NDBC:LRIF1:1,2017-12-01T15:00:00Z,25.2840,-80.8940,1.5,0.96,1111122 
ENP,ioos.station.NOAA.NDBC:LRIF1:1,2017-12-01T16:00:00Z,25.2840,-80.8940,1.5,0.77,1111122 
ENP,ioos.station.NOAA.NDBC:LRIF1:1,2017-12-01T17:00:00Z,25.2840,-80.8940,1.5,0.67,1111122 
ENP,ioos.station.NOAA.NDBC:LRIF1:1,2017-12-01T18:00:00Z,25.2840,-80.8940,1.5,0.66,1111122 
ENP,ioos.station.NOAA.NDBC:LRIF1:1,2017-12-01T19:00:00Z,25.2840,-80.8940,1.5,0.62,1111122 
ENP,ioos.station.NOAA.NDBC:LRIF1:1,2017-12-01T20:00:00Z,25.2840,-80.8940,1.5,0.62,1111122 
ENP,ioos.station.NOAA.NDBC:LRIF1:1,2017-12-01T21:00:00Z,25.2840,-80.8940,1.5,0.62,1111122 
ENP,ioos.station.NOAA.NDBC:LRIF1:1,2017-12-01T22:00:00Z,25.2840,-80.8940,1.5,0.63,1111122 
ENP,ioos.station.NOAA.NDBC:LRIF1:1,2017-12-01T23:00:00Z,25.2840,-80.8940,1.5,0.7,1111122 
ENP,ioos.station.NOAA.NDBC:LRIF1:1,2017-12-02T00:00:00Z,25.2840,-80.8940,1.5,0.85,1111122 
ENP,ioos.station.NOAA.NDBC:LRIF1:1,2017-12-02T01:00:00Z,25.2840,-80.8940,1.5,0.84,1111122 
ENP,ioos.station.NOAA.NDBC:LRIF1:1,2017-12-02T02:00:00Z,25.2840,-80.8940,1.5,0.84,1111122 
ENP,ioos.station.NOAA.NDBC:LRIF1:1,2017-12-02T04:00:00Z,25.2840,-80.8940,1.5,0.74,1111122 
ENP,ioos.station.NOAA.NDBC:LRIF1:1,2017-12-02T07:00:00Z,25.2840,-80.8940,1.5,0.7,1111122 
ENP,ioos.station.NOAA.NDBC:LRIF1:1,2017-12-02T08:00:00Z,25.2840,-80.8940,1.5,0.7,1111122 
ENP,ioos.station.NOAA.NDBC:LRIF1:1,2017-12-02T09:00:00Z,25.2840,-80.8940,1.5,0.7,1111122 
ENP,ioos.station.NOAA.NDBC:LRIF1:1,2017-12-02T10:00:00Z,25.2840,-80.8940,1.5,0.77,1111122 
ENP,ioos.station.NOAA.NDBC:LRIF1:1,2017-12-02T12:00:00Z,25.2840,-80.8940,1.5,1.53,1111122 
ENP,ioos.station.NOAA.NDBC:LRIF1:1,2017-12-02T13:00:00Z,25.2840,-80.8940,1.5,1.69,1111122 
ENP,ioos.station.NOAA.NDBC:LRIF1:1,2017-12-02T14:00:00Z,25.2840,-80.8940,1.5,1.56,1111122 
ENP,ioos.station.NOAA.NDBC:LRIF1:1,2017-12-02T15:00:00Z,25.2840,-80.8940,1.5,1.42,1111122 
ENP,ioos.station.NOAA.NDBC:LRIF1:1,2017-12-02T16:00:00Z,25.2840,-80.8940,1.5,1.19,1111122 
ENP,ioos.station.NOAA.NDBC:LRIF1:1,2017-12-02T17:00:00Z,25.2840,-80.8940,1.5,1.16,1111122 
ENP,ioos.station.NOAA.NDBC:LRIF1:1,2017-12-02T18:00:00Z,25.2840,-80.8940,1.5,1.05,1111122 
ENP,ioos.station.NOAA.NDBC:LRIF1:1,2017-12-02T19:00:00Z,25.2840,-80.8940,1.5,0.99,1111122 
ENP,ioos.station.NOAA.NDBC:LRIF1:1,2017-12-02T20:00:00Z,25.2840,-80.8940,1.5,0.96,1111122 
ENP,ioos.station.NOAA.NDBC:LRIF1:1,2017-12-02T21:00:00Z,25.2840,-80.8940,1.5,0.94,1111122 
ENP,ioos.station.NOAA.NDBC:LRIF1:1,2017-12-02T22:00:00Z,25.2840,-80.8940,1.5,0.93,1111122 
ENP,ioos.station.NOAA.NDBC:LRIF1:1,2017-12-02T23:00:00Z,25.2840,-80.8940,1.5,0.94,1111122 
ENP,ioos.station.NOAA.NDBC:LRIF1:1,2017-12-03T00:00:00Z,25.2840,-80.8940,1.5,1.0,1111122 
ENP,ioos.station.NOAA.NDBC:LRIF1:1,2017-12-03T01:00:00Z,25.2840,-80.8940,1.5,1.14,1111122 
ENP,ioos.station.NOAA.NDBC:LRIF1:1,2017-12-03T02:00:00Z,25.2840,-80.8940,1.5,1.13,1111122 
ENP,ioos.station.NOAA.NDBC:LRIF1:1,2017-12-03T04:00:00Z,25.2840,-80.8940,1.5,1.08,1111122 
ENP,ioos.station.NOAA.NDBC:LRIF1:1,2017-12-03T05:00:00Z,25.2840,-80.8940,1.5,1.03,1111122 
ENP,ioos.station.NOAA.NDBC:LRIF1:1,2017-12-03T07:00:00Z,25.2840,-80.8940,1.5,0.97,1111122 
ENP,ioos.station.NOAA.NDBC:LRIF1:1,2017-12-03T08:00:00Z,25.2840,-80.8940,1.5,0.97,1111122 
ENP,ioos.station.NOAA.NDBC:LRIF1:1,2017-12-03T09:00:00Z,25.2840,-80.8940,1.5,0.98,1111122 
ENP,ioos.station.NOAA.NDBC:LRIF1:1,2017-12-03T10:00:00Z,25.2840,-80.8940,1.5,0.98,1111122 
ENP,ioos.station.NOAA.NDBC:LRIF1:1,2017-12-03T13:00:00Z,25.2840,-80.8940,1.5,1.87,1111122 
ENP,ioos.station.NOAA.NDBC:LRIF1:1,2017-12-03T14:00:00Z,25.2840,-80.8940,1.5,1.93,1111122 
ENP,ioos.station.NOAA.NDBC:LRIF1:1,2017-12-03T15:00:00Z,25.2840,-80.8940,1.5,1.79,1111122 
ENP,ioos.station.NOAA.NDBC:LRIF1:1,2017-12-03T16:00:00Z,25.2840,-80.8940,1.5,1.66,1111122 
ENP,ioos.station.NOAA.NDBC:LRIF1:1,2017-12-03T17:00:00Z,25.2840,-80.8940,1.5,1.53,1111122 
ENP,ioos.station.NOAA.NDBC:LRIF1:1,2017-12-03T18:00:00Z,25.2840,-80.8940,1.5,1.45,1111122 
ENP,ioos.station.NOAA.NDBC:LRIF1:1,2017-12-03T19:00:00Z,25.2840,-80.8940,1.5,1.34,1111122 
ENP,ioos.station.NOAA.NDBC:LRIF1:1,2017-12-03T20:00:00Z,25.2840,-80.8940,1.5,1.29,1111122 
ENP,ioos.station.NOAA.NDBC:LRIF1:1,2017-12-03T21:00:00Z,25.2840,-80.8940,1.5,1.19,1111122 
ENP,ioos.station.NOAA.NDBC:LRIF1:1,2017-12-03T22:00:00Z,25.2840,-80.8940,1.5,1.18,1111122 
ENP,ioos.station.NOAA.NDBC:LRIF1:1,2017-12-03T23:00:00Z,25.2840,-80.8940,1.5,1.19,1111122 
ENP,ioos.station.NOAA.NDBC:LRIF1:1,2017-12-04T02:00:00Z,25.2840,-80.8940,1.5,1.49,1111122 
ENP,ioos.station.NOAA.NDBC:LRIF1:1,2017-12-04T04:00:00Z,25.2840,-80.8940,1.5,1.47,1111122 
ENP,ioos.station.NOAA.NDBC:LRIF1:1,2017-12-04T05:00:00Z,25.2840,-80.8940,1.5,1.45,1111122 
ENP,ioos.station.NOAA.NDBC:LRIF1:1,2017-12-04T07:00:00Z,25.2840,-80.8940,1.5,1.34,1111122 
ENP,ioos.station.NOAA.NDBC:LRIF1:1,2017-12-04T08:00:00Z,25.2840,-80.8940,1.5,1.31,1111122 
ENP,ioos.station.NOAA.NDBC:LRIF1:1,2017-12-04T09:00:00Z,25.2840,-80.8940,1.5,1.32,1111122 
ENP,ioos.station.NOAA.NDBC:LRIF1:1,2017-12-04T10:00:00Z,25.2840,-80.8940,1.5,1.34,1111122 
ENP,ioos.station.NOAA.NDBC:LRIF1:1,2017-12-04T12:00:00Z,25.2840,-80.8940,1.5,1.81,1111122 
ENP,ioos.station.NOAA.NDBC:LRIF1:1,2017-12-04T13:00:00Z,25.2840,-80.8940,1.5,2.06,1111122 
ENP,ioos.station.NOAA.NDBC:LRIF1:1,2017-12-04T14:00:00Z,25.2840,-80.8940,1.5,2.17,1111122 
ENP,ioos.station.NOAA.NDBC:LRIF1:1,2017-12-04T15:00:00Z,25.2840,-80.8940,1.5,1.96,1111122 
ENP,ioos.station.NOAA.NDBC:LRIF1:1,2017-12-04T16:00:00Z,25.2840,-80.8940,1.5,1.95,1111122 
ENP,ioos.station.NOAA.NDBC:LRIF1:1,2017-12-04T17:00:00Z,25.2840,-80.8940,1.5,1.95,1111122 
ENP,ioos.station.NOAA.NDBC:LRIF1:1,2017-12-04T18:00:00Z,25.2840,-80.8940,1.5,1.91,1111122 
ENP,ioos.station.NOAA.NDBC:LRIF1:1,2017-12-04T19:00:00Z,25.2840,-80.8940,1.5,1.78,1111122 
ENP,ioos.station.NOAA.NDBC:LRIF1:1,2017-12-04T20:00:00Z,25.2840,-80.8940,1.5,1.68,1111122 
ENP,ioos.station.NOAA.NDBC:LRIF1:1,2017-12-04T21:00:00Z,25.2840,-80.8940,1.5,1.63,1111122 
ENP,ioos.station.NOAA.NDBC:LRIF1:1,2017-12-04T22:00:00Z,25.2840,-80.8940,1.5,1.62,1111122 
ENP,ioos.station.NOAA.NDBC:LRIF1:1,2017-12-04T23:00:00Z,25.2840,-80.8940,1.5,1.57,1111122 
ENP,ioos.station.NOAA.NDBC:LRIF1:1,2017-12-05T00:00:00Z,25.2840,-80.8940,1.5,1.51,1111122 
ENP,ioos.station.NOAA.NDBC:LRIF1:1,2017-12-05T13:00:00Z,25.2840,-80.8940,1.5,1.49,1111122 
ENP,ioos.station.NOAA.NDBC:LRIF1:1,2017-12-05T14:00:00Z,25.2840,-80.8940,1.5,1.8,1111122 
ENP,ioos.station.NOAA.NDBC:LRIF1:1,2017-12-05T15:00:00Z,25.2840,-80.8940,1.5,2.02,1111122 
ENP,ioos.station.NOAA.NDBC:LRIF1:1,2017-12-05T16:00:00Z,25.2840,-80.8940,1.5,1.89,1111122 
ENP,ioos.station.NOAA.NDBC:LRIF1:1,2017-12-05T17:00:00Z,25.2840,-80.8940,1.5,1.87,1111122 
ENP,ioos.station.NOAA.NDBC:LRIF1:1,2017-12-05T18:00:00Z,25.2840,-80.8940,1.5,1.77,1111122 
ENP,ioos.station.NOAA.NDBC:LRIF1:1,2017-12-05T19:00:00Z,25.2840,-80.8940,1.5,1.66,1111122 
ENP,ioos.station.NOAA.NDBC:LRIF1:1,2017-12-05T20:00:00Z,25.2840,-80.8940,1.5,1.57,1111122 
ENP,ioos.station.NOAA.NDBC:LRIF1:1,2017-12-05T21:00:00Z,25.2840,-80.8940,1.5,1.5,1111122 
ENP,ioos.station.NOAA.NDBC:LRIF1:1,2017-12-05T22:00:00Z,25.2840,-80.8940,1.5,1.46,1111122 
ENP,ioos.station.NOAA.NDBC:LRIF1:1,2017-12-05T23:00:00Z,25.2840,-80.8940,1.5,1.45,1111122 
ENP,ioos.station.NOAA.NDBC:LRIF1:1,2017-12-06T00:00:00Z,25.2840,-80.8940,1.5,1.34,1111122 
ENP,ioos.station.NOAA.NDBC:LRIF1:1,2017-12-06T01:00:00Z,25.2840,-80.8940,1.5,1.31,1111122 
ENP,ioos.station.NOAA.NDBC:LRIF1:1,2017-12-06T02:00:00Z,25.2840,-80.8940,1.5,1.32,1111122 
ENP,ioos.station.NOAA.NDBC:LRIF1:1,2017-12-06T04:00:00Z,25.2840,-80.8940,1.5,1.32,1111122 
ENP,ioos.station.NOAA.NDBC:LRIF1:1,2017-12-06T05:00:00Z,25.2840,-80.8940,1.5,1.32,1111122 
ENP,ioos.station.NOAA.NDBC:LRIF1:1,2017-12-06T07:00:00Z,25.2840,-80.8940,1.5,1.25,1111122 
ENP,ioos.station.NOAA.NDBC:LRIF1:1,2017-12-06T08:00:00Z,25.2840,-80.8940,1.5,1.22,1111122 
ENP,ioos.station.NOAA.NDBC:LRIF1:1,2017-12-06T09:00:00Z,25.2840,-80.8940,1.5,1.2,1111122 
ENP,ioos.station.NOAA.NDBC:LRIF1:1,2017-12-06T10:00:00Z,25.2840,-80.8940,1.5,1.17,1111122 
ENP,ioos.station.NOAA.NDBC:LRIF1:1,2017-12-06T13:00:00Z,25.2840,-80.8940,1.5,1.2,1111122 
ENP,ioos.station.NOAA.NDBC:LRIF1:1,2017-12-06T14:00:00Z,25.2840,-80.8940,1.5,1.48,1111122 
ENP,ioos.station.NOAA.NDBC:LRIF1:1,2017-12-06T15:00:00Z,25.2840,-80.8940,1.5,1.79,1111122 
ENP,ioos.station.NOAA.NDBC:LRIF1:1,2017-12-06T16:00:00Z,25.2840,-80.8940,1.5,1.95,1111122 
ENP,ioos.station.NOAA.NDBC:LRIF1:1,2017-12-06T17:00:00Z,25.2840,-80.8940,1.5,1.84,1111122 
ENP,ioos.station.NOAA.NDBC:LRIF1:1,2017-12-06T18:00:00Z,25.2840,-80.8940,1.5,1.73,1111122 
ENP,ioos.station.NOAA.NDBC:LRIF1:1,2017-12-06T19:00:00Z,25.2840,-80.8940,1.5,1.61,1111122 
ENP,ioos.station.NOAA.NDBC:LRIF1:1,2017-12-06T20:00:00Z,25.2840,-80.8940,1.5,1.57,1111122 
ENP,ioos.station.NOAA.NDBC:LRIF1:1,2017-12-06T21:00:00Z,25.2840,-80.8940,1.5,1.51,1111122 
ENP,ioos.station.NOAA.NDBC:LRIF1:1,2017-12-06T22:00:00Z,25.2840,-80.8940,1.5,1.41,1111122 
ENP,ioos.station.NOAA.NDBC:LRIF1:1,2017-12-06T23:00:00Z,25.2840,-80.8940,1.5,1.35,1111122 
ENP,ioos.station.NOAA.NDBC:LRIF1:1,2017-12-07T00:00:00Z,25.2840,-80.8940,1.5,1.29,1111122 
ENP,ioos.station.NOAA.NDBC:LRIF1:1,2017-12-07T01:00:00Z,25.2840,-80.8940,1.5,1.26,1111122 
ENP,ioos.station.NOAA.NDBC:LRIF1:1,2017-12-07T02:00:00Z,25.2840,-80.8940,1.5,1.3,1111122 
ENP,ioos.station.NOAA.NDBC:LRIF1:1,2017-12-07T04:00:00Z,25.2840,-80.8940,1.5,1.37,1111122 
ENP,ioos.station.NOAA.NDBC:LRIF1:1,2017-12-07T05:00:00Z,25.2840,-80.8940,1.5,1.37,1111122 
ENP,ioos.station.NOAA.NDBC:LRIF1:1,2017-12-07T07:00:00Z,25.2840,-80.8940,1.5,1.35,1111122 
ENP,ioos.station.NOAA.NDBC:LRIF1:1,2017-12-07T08:00:00Z,25.2840,-80.8940,1.5,1.26,1111122 
ENP,ioos.station.NOAA.NDBC:LRIF1:1,2017-12-07T09:00:00Z,25.2840,-80.8940,1.5,1.23,1111122 
ENP,ioos.station.NOAA.NDBC:LRIF1:1,2017-12-07T10:00:00Z,25.2840,-80.8940,1.5,1.21,1111122 
ENP,ioos.station.NOAA.NDBC:LRIF1:1,2017-12-07T13:00:00Z,25.2840,-80.8940,1.5,1.22,1111122 
ENP,ioos.station.NOAA.NDBC:LRIF1:1,2017-12-07T14:00:00Z,25.2840,-80.8940,1.5,1.29,1111122 
ENP,ioos.station.NOAA.NDBC:LRIF1:1,2017-12-07T15:00:00Z,25.2840,-80.8940,1.5,1.57,1111122 
ENP,ioos.station.NOAA.NDBC:LRIF1:1,2017-12-07T16:00:00Z,25.2840,-80.8940,1.5,1.81,1111122 
ENP,ioos.station.NOAA.NDBC:LRIF1:1,2017-12-07T17:00:00Z,25.2840,-80.8940,1.5,1.78,1111122 
ENP,ioos.station.NOAA.NDBC:LRIF1:1,2017-12-07T18:00:00Z,25.2840,-80.8940,1.5,1.64,1111122 
ENP,ioos.station.NOAA.NDBC:LRIF1:1,2017-12-07T19:00:00Z,25.2840,-80.8940,1.5,1.56,1111122 
ENP,ioos.station.NOAA.NDBC:LRIF1:1,2017-12-07T20:00:00Z,25.2840,-80.8940,1.5,1.56,1111122 
ENP,ioos.station.NOAA.NDBC:LRIF1:1,2017-12-07T22:00:00Z,25.2840,-80.8940,1.5,1.48,1111122 
ENP,ioos.station.NOAA.NDBC:LRIF1:1,2017-12-07T23:00:00Z,25.2840,-80.8940,1.5,1.38,1111122 
ENP,ioos.station.NOAA.NDBC:LRIF1:1,2017-12-08T00:00:00Z,25.2840,-80.8940,1.5,1.36,1111122 
ENP,ioos.station.NOAA.NDBC:LRIF1:1,2017-12-08T01:00:00Z,25.2840,-80.8940,1.5,1.34,1111122 
ENP,ioos.station.NOAA.NDBC:LRIF1:1,2017-12-08T02:00:00Z,25.2840,-80.8940,1.5,1.28,1111122 
ENP,ioos.station.NOAA.NDBC:LRIF1:1,2017-12-08T04:00:00Z,25.2840,-80.8940,1.5,1.34,1111122 
ENP,ioos.station.NOAA.NDBC:LRIF1:1,2017-12-08T05:00:00Z,25.2840,-80.8940,1.5,1.36,1111122 
ENP,ioos.station.NOAA.NDBC:LRIF1:1,2017-12-08T07:00:00Z,25.2840,-80.8940,1.5,1.35,1111122 
ENP,ioos.station.NOAA.NDBC:LRIF1:1,2017-12-08T08:00:00Z,25.2840,-80.8940,1.5,1.34,1111122 
ENP,ioos.station.NOAA.NDBC:LRIF1:1,2017-12-08T09:00:00Z,25.2840,-80.8940,1.5,1.26,1111122 
ENP,ioos.station.NOAA.NDBC:LRIF1:1,2017-12-08T10:00:00Z,25.2840,-80.8940,1.5,1.23,1111122 
ENP,ioos.station.NOAA.NDBC:LRIF1:1,2017-12-08T12:00:00Z,25.2840,-80.8940,1.5,1.19,1111122 
ENP,ioos.station.NOAA.NDBC:LRIF1:1,2017-12-08T13:00:00Z,25.2840,-80.8940,1.5,1.19,1111122 
ENP,ioos.station.NOAA.NDBC:LRIF1:1,2017-12-08T14:00:00Z,25.2840,-80.8940,1.5,1.21,1111122 
ENP,ioos.station.NOAA.NDBC:LRIF1:1,2017-12-08T15:00:00Z,25.2840,-80.8940,1.5,1.32,1111122 
ENP,ioos.station.NOAA.NDBC:LRIF1:1,2017-12-08T17:00:00Z,25.2840,-80.8940,1.5,1.96,1111122 
ENP,ioos.station.NOAA.NDBC:LRIF1:1,2017-12-08T18:00:00Z,25.2840,-80.8940,1.5,2.13,1111122 
ENP,ioos.station.NOAA.NDBC:LRIF1:1,2017-12-08T19:00:00Z,25.2840,-80.8940,1.5,2.11,1111122 
ENP,ioos.station.NOAA.NDBC:LRIF1:1,2017-12-08T20:00:00Z,25.2840,-80.8940,1.5,2.04,1111122 
ENP,ioos.station.NOAA.NDBC:LRIF1:1,2017-12-08T21:00:00Z,25.2840,-80.8940,1.5,1.88,1111122 
ENP,ioos.station.NOAA.NDBC:LRIF1:1,2017-12-08T22:00:00Z,25.2840,-80.8940,1.5,1.72,1111122 
ENP,ioos.station.NOAA.NDBC:LRIF1:1,2017-12-08T23:00:00Z,25.2840,-80.8940,1.5,1.64,1111122 
ENP,ioos.station.NOAA.NDBC:LRIF1:1,2017-12-09T00:00:00Z,25.2840,-80.8940,1.5,1.59,1111122 
ENP,ioos.station.NOAA.NDBC:LRIF1:1,2017-12-09T01:00:00Z,25.2840,-80.8940,1.5,1.59,1111122 
ENP,ioos.station.NOAA.NDBC:LRIF1:1,2017-12-09T02:00:00Z,25.2840,-80.8940,1.5,1.58,1111122 
ENP,ioos.station.NOAA.NDBC:LRIF1:1,2017-12-09T04:00:00Z,25.2840,-80.8940,1.5,1.59,1111122 
ENP,ioos.station.NOAA.NDBC:LRIF1:1,2017-12-09T05:00:00Z,25.2840,-80.8940,1.5,1.64,1111122 
ENP,ioos.station.NOAA.NDBC:LRIF1:1,2017-12-09T07:00:00Z,25.2840,-80.8940,1.5,1.88,1111122 
ENP,ioos.station.NOAA.NDBC:LRIF1:1,2017-12-09T08:00:00Z,25.2840,-80.8940,1.5,1.88,1111122 
ENP,ioos.station.NOAA.NDBC:LRIF1:1,2017-12-09T09:00:00Z,25.2840,-80.8940,1.5,1.79,1111122 
ENP,ioos.station.NOAA.NDBC:LRIF1:1,2017-12-09T10:00:00Z,25.2840,-80.8940,1.5,1.71,1111122 
ENP,ioos.station.NOAA.NDBC:LRIF1:1,2017-12-09T12:00:00Z,25.2840,-80.8940,1.5,1.67,1111122 
ENP,ioos.station.NOAA.NDBC:LRIF1:1,2017-12-09T13:00:00Z,25.2840,-80.8940,1.5,1.67,1111122 
ENP,ioos.station.NOAA.NDBC:LRIF1:1,2017-12-09T14:00:00Z,25.2840,-80.8940,1.5,1.67,1111122 
ENP,ioos.station.NOAA.NDBC:LRIF1:1,2017-12-09T15:00:00Z,25.2840,-80.8940,1.5,1.74,1111122 
ENP,ioos.station.NOAA.NDBC:LRIF1:1,2017-12-09T16:00:00Z,25.2840,-80.8940,1.5,1.82,1111122 
ENP,ioos.station.NOAA.NDBC:LRIF1:1,2017-12-09T17:00:00Z,25.2840,-80.8940,1.5,2.32,1111122 
ENP,ioos.station.NOAA.NDBC:LRIF1:1,2017-12-09T18:00:00Z,25.2840,-80.8940,1.5,2.72,1111122 
ENP,ioos.station.NOAA.NDBC:LRIF1:1,2017-12-09T19:00:00Z,25.2840,-80.8940,1.5,2.88,1111122 
ENP,ioos.station.NOAA.NDBC:LRIF1:1,2017-12-09T20:00:00Z,25.2840,-80.8940,1.5,2.94,1111122 
ENP,ioos.station.NOAA.NDBC:LRIF1:1,2017-12-09T21:00:00Z,25.2840,-80.8940,1.5,2.95,1111122 
ENP,ioos.station.NOAA.NDBC:LRIF1:1,2017-12-09T22:00:00Z,25.2840,-80.8940,1.5,2.86,1111122 
ENP,ioos.station.NOAA.NDBC:LRIF1:1,2017-12-09T23:00:00Z,25.2840,-80.8940,1.5,2.8,1111122 
ENP,ioos.station.NOAA.NDBC:LRIF1:1,2017-12-10T00:00:00Z,25.2840,-80.8940,1.5,2.79,1111122 
ENP,ioos.station.NOAA.NDBC:LRIF1:1,2017-12-10T01:00:00Z,25.2840,-80.8940,1.5,2.7,1111122 
ENP,ioos.station.NOAA.NDBC:LRIF1:1,2017-12-10T02:00:00Z,25.2840,-80.8940,1.5,2.68,1111122 
ENP,ioos.station.NOAA.NDBC:LRIF1:1,2017-12-10T04:00:00Z,25.2840,-80.8940,1.5,2.68,1111122 
ENP,ioos.station.NOAA.NDBC:LRIF1:1,2017-12-10T05:00:00Z,25.2840,-80.8940,1.5,2.67,1111122 
ENP,ioos.station.NOAA.NDBC:LRIF1:1,2017-12-10T07:00:00Z,25.2840,-80.8940,1.5,2.65,1111122 
ENP,ioos.station.NOAA.NDBC:LRIF1:1,2017-12-10T08:00:00Z,25.2840,-80.8940,1.5,2.66,1111122 
ENP,ioos.station.NOAA.NDBC:LRIF1:1,2017-12-10T09:00:00Z,25.2840,-80.8940,1.5,2.57,1111122 
ENP,ioos.station.NOAA.NDBC:LRIF1:1,2017-12-10T10:00:00Z,25.2840,-80.8940,1.5,2.49,1111122 
ENP,ioos.station.NOAA.NDBC:LRIF1:1,2017-12-10T12:00:00Z,25.2840,-80.8940,1.5,2.46,1111122 
ENP,ioos.station.NOAA.NDBC:LRIF1:1,2017-12-10T14:00:00Z,25.2840,-80.8940,1.5,2.12,1111122 
ENP,ioos.station.NOAA.NDBC:LRIF1:1,2017-12-10T15:00:00Z,25.2840,-80.8940,1.5,1.98,1111122 
ENP,ioos.station.NOAA.NDBC:LRIF1:1,2017-12-10T16:00:00Z,25.2840,-80.8940,1.5,1.79,1111122 
ENP,ioos.station.NOAA.NDBC:LRIF1:1,2017-12-10T17:00:00Z,25.2840,-80.8940,1.5,1.68,1111122 
ENP,ioos.station.NOAA.NDBC:LRIF1:1,2017-12-10T18:00:00Z,25.2840,-80.8940,1.5,1.56,1111122 
ENP,ioos.station.NOAA.NDBC:LRIF1:1,2017-12-10T19:00:00Z,25.2840,-80.8940,1.5,1.42,1111122 
ENP,ioos.station.NOAA.NDBC:LRIF1:1,2017-12-10T20:00:00Z,25.2840,-80.8940,1.5,1.34,1111122 
ENP,ioos.station.NOAA.NDBC:LRIF1:1,2017-12-10T21:00:00Z,25.2840,-80.8940,1.5,1.27,1111122 
ENP,ioos.station.NOAA.NDBC:LRIF1:1,2017-12-10T22:00:00Z,25.2840,-80.8940,1.5,1.23,1111122 
ENP,ioos.station.NOAA.NDBC:LRIF1:1,2017-12-10T23:00:00Z,25.2840,-80.8940,1.5,1.19,1111122 
ENP,ioos.station.NOAA.NDBC:LRIF1:1,2017-12-11T00:00:00Z,25.2840,-80.8940,1.5,1.16,1111122 
ENP,ioos.station.NOAA.NDBC:LRIF1:1,2017-12-11T01:00:00Z,25.2840,-80.8940,1.5,1.13,1111122 
ENP,ioos.station.NOAA.NDBC:LRIF1:1,2017-12-11T02:00:00Z,25.2840,-80.8940,1.5,1.11,1111122 
ENP,ioos.station.NOAA.NDBC:LRIF1:1,2017-12-11T04:00:00Z,25.2840,-80.8940,1.5,1.09,1111122 
ENP,ioos.station.NOAA.NDBC:LRIF1:1,2017-12-11T05:00:00Z,25.2840,-80.8940,1.5,1.07,1111122 
ENP,ioos.station.NOAA.NDBC:LRIF1:1,2017-12-11T07:00:00Z,25.2840,-80.8940,1.5,1.06,1111122 
ENP,ioos.station.NOAA.NDBC:LRIF1:1,2017-12-11T08:00:00Z,25.2840,-80.8940,1.5,1.05,1111122 
ENP,ioos.station.NOAA.NDBC:LRIF1:1,2017-12-11T09:00:00Z,25.2840,-80.8940,1.5,1.02,1111122 
ENP,ioos.station.NOAA.NDBC:LRIF1:1,2017-12-11T10:00:00Z,25.2840,-80.8940,1.5,1.01,1111122 
ENP,ioos.station.NOAA.NDBC:LRIF1:1,2017-12-11T12:00:00Z,25.2840,-80.8940,1.5,0.93,1111122 
ENP,ioos.station.NOAA.NDBC:LRIF1:1,2017-12-11T13:00:00Z,25.2840,-80.8940,1.5,0.91,1111122 
ENP,ioos.station.NOAA.NDBC:LRIF1:1,2017-12-11T14:00:00Z,25.2840,-80.8940,1.5,0.89,1111122 
ENP,ioos.station.NOAA.NDBC:LRIF1:1,2017-12-11T15:00:00Z,25.2840,-80.8940,1.5,0.88,1111122 
ENP,ioos.station.NOAA.NDBC:LRIF1:1,2017-12-11T16:00:00Z,25.2840,-80.8940,1.5,0.88,1111122 
ENP,ioos.station.NOAA.NDBC:LRIF1:1,2017-12-11T17:00:00Z,25.2840,-80.8940,1.5,0.88,1111122 
ENP,ioos.station.NOAA.NDBC:LRIF1:1,2017-12-11T18:00:00Z,25.2840,-80.8940,1.5,0.87,1111122 
ENP,ioos.station.NOAA.NDBC:LRIF1:1,2017-12-11T19:00:00Z,25.2840,-80.8940,1.5,0.86,1111122 
ENP,ioos.station.NOAA.NDBC:LRIF1:1,2017-12-11T20:00:00Z,25.2840,-80.8940,1.5,0.83,1111122 
ENP,ioos.station.NOAA.NDBC:LRIF1:1,2017-12-11T21:00:00Z,25.2840,-80.8940,1.5,0.8,1111122 
ENP,ioos.station.NOAA.NDBC:LRIF1:1,2017-12-11T22:00:00Z,25.2840,-80.8940,1.5,0.76,1111122 
ENP,ioos.station.NOAA.NDBC:LRIF1:1,2017-12-11T23:00:00Z,25.2840,-80.8940,1.5,0.75,1111122 
ENP,ioos.station.NOAA.NDBC:LRIF1:1,2017-12-12T00:00:00Z,25.2840,-80.8940,1.5,0.74,1111122 
ENP,ioos.station.NOAA.NDBC:LRIF1:1,2017-12-12T01:00:00Z,25.2840,-80.8940,1.5,0.74,1111122 
ENP,ioos.station.NOAA.NDBC:LRIF1:1,2017-12-12T02:00:00Z,25.2840,-80.8940,1.5,0.73,1111122 
ENP,ioos.station.NOAA.NDBC:LRIF1:1,2017-12-12T05:00:00Z,25.2840,-80.8940,1.5,0.71,1111122 
ENP,ioos.station.NOAA.NDBC:LRIF1:1,2017-12-12T07:00:00Z,25.2840,-80.8940,1.5,0.71,1111122 
ENP,ioos.station.NOAA.NDBC:LRIF1:1,2017-12-12T08:00:00Z,25.2840,-80.8940,1.5,0.71,1111122 
ENP,ioos.station.NOAA.NDBC:LRIF1:1,2017-12-12T09:00:00Z,25.2840,-80.8940,1.5,0.73,1111122 
ENP,ioos.station.NOAA.NDBC:LRIF1:1,2017-12-12T10:00:00Z,25.2840,-80.8940,1.5,0.76,1111122 
ENP,ioos.station.NOAA.NDBC:LRIF1:1,2017-12-12T13:00:00Z,25.2840,-80.8940,1.5,0.75,1111122 
ENP,ioos.station.NOAA.NDBC:LRIF1:1,2017-12-12T14:00:00Z,25.2840,-80.8940,1.5,0.73,1111122 
ENP,ioos.station.NOAA.NDBC:LRIF1:1,2017-12-12T15:00:00Z,25.2840,-80.8940,1.5,0.72,1111122 
ENP,ioos.station.NOAA.NDBC:LRIF1:1,2017-12-12T16:00:00Z,25.2840,-80.8940,1.5,0.72,1111122 
ENP,ioos.station.NOAA.NDBC:LRIF1:1,2017-12-12T17:00:00Z,25.2840,-80.8940,1.5,0.71,1111122 
ENP,ioos.station.NOAA.NDBC:LRIF1:1,2017-12-12T18:00:00Z,25.2840,-80.8940,1.5,0.71,1111122 
ENP,ioos.station.NOAA.NDBC:LRIF1:1,2017-12-12T19:00:00Z,25.2840,-80.8940,1.5,0.71,1111122 
ENP,ioos.station.NOAA.NDBC:LRIF1:1,2017-12-12T20:00:00Z,25.2840,-80.8940,1.5,0.71,1111122 
ENP,ioos.station.NOAA.NDBC:LRIF1:1,2017-12-12T21:00:00Z,25.2840,-80.8940,1.5,0.71,1111122 
ENP,ioos.station.NOAA.NDBC:LRIF1:1,2017-12-12T22:00:00Z,25.2840,-80.8940,1.5,0.75,1111122 
ENP,ioos.station.NOAA.NDBC:LRIF1:1,2017-12-13T09:00:00Z,25.2840,-80.8940,1.5,1.77,1111122 
ENP,ioos.station.NOAA.NDBC:LRIF1:1,2017-12-13T10:00:00Z,25.2840,-80.8940,1.5,2.06,1111122 
ENP,ioos.station.NOAA.NDBC:LRIF1:1,2017-12-13T12:00:00Z,25.2840,-80.8940,1.5,2.06,1111122 
ENP,ioos.station.NOAA.NDBC:LRIF1:1,2017-12-13T13:00:00Z,25.2840,-80.8940,1.5,1.66,1111122 
ENP,ioos.station.NOAA.NDBC:LRIF1:1,2017-12-13T14:00:00Z,25.2840,-80.8940,1.5,1.51,1111122 
ENP,ioos.station.NOAA.NDBC:LRIF1:1,2017-12-13T17:00:00Z,25.2840,-80.8940,1.5,1.21,1111122 
ENP,ioos.station.NOAA.NDBC:LRIF1:1,2017-12-13T18:00:00Z,25.2840,-80.8940,1.5,1.14,1111122 
ENP,ioos.station.NOAA.NDBC:LRIF1:1,2017-12-13T19:00:00Z,25.2840,-80.8940,1.5,1.11,1111122 
ENP,ioos.station.NOAA.NDBC:LRIF1:1,2017-12-13T20:00:00Z,25.2840,-80.8940,1.5,1.07,1111122 
ENP,ioos.station.NOAA.NDBC:LRIF1:1,2017-12-13T21:00:00Z,25.2840,-80.8940,1.5,1.04,1111122 
ENP,ioos.station.NOAA.NDBC:LRIF1:1,2017-12-13T22:00:00Z,25.2840,-80.8940,1.5,1.04,1111122 
ENP,ioos.station.NOAA.NDBC:LRIF1:1,2017-12-14T10:00:00Z,25.2840,-80.8940,1.5,1.15,1111122 
ENP,ioos.station.NOAA.NDBC:LRIF1:1,2017-12-14T12:00:00Z,25.2840,-80.8940,1.5,1.44,1111122 
ENP,ioos.station.NOAA.NDBC:LRIF1:1,2017-12-14T13:00:00Z,25.2840,-80.8940,1.5,1.21,1111122 
ENP,ioos.station.NOAA.NDBC:LRIF1:1,2017-12-14T14:00:00Z,25.2840,-80.8940,1.5,1.2,1111122 
ENP,ioos.station.NOAA.NDBC:LRIF1:1,2017-12-14T15:00:00Z,25.2840,-80.8940,1.5,1.11,1111122 
ENP,ioos.station.NOAA.NDBC:LRIF1:1,2017-12-14T16:00:00Z,25.2840,-80.8940,1.5,1.02,1111122 
ENP,ioos.station.NOAA.NDBC:LRIF1:1,2017-12-14T17:00:00Z,25.2840,-80.8940,1.5,0.94,1111122 
ENP,ioos.station.NOAA.NDBC:LRIF1:1,2017-12-14T18:00:00Z,25.2840,-80.8940,1.5,0.85,1111122 
ENP,ioos.station.NOAA.NDBC:LRIF1:1,2017-12-14T19:00:00Z,25.2840,-80.8940,1.5,0.85,1111122 
ENP,ioos.station.NOAA.NDBC:LRIF1:1,2017-12-14T20:00:00Z,25.2840,-80.8940,1.5,0.85,1111122 
ENP,ioos.station.NOAA.NDBC:LRIF1:1,2017-12-14T23:00:00Z,25.2840,-80.8940,1.5,0.85,1111122 
ENP,ioos.station.NOAA.NDBC:LRIF1:1,2017-12-15T00:00:00Z,25.2840,-80.8940,1.5,0.9,1111122 
ENP,ioos.station.NOAA.NDBC:LRIF1:1,2017-12-15T01:00:00Z,25.2840,-80.8940,1.5,0.95,1111122 
ENP,ioos.station.NOAA.NDBC:LRIF1:1,2017-12-15T02:00:00Z,25.2840,-80.8940,1.5,0.95,1111122 
ENP,ioos.station.NOAA.NDBC:LRIF1:1,2017-12-15T05:00:00Z,25.2840,-80.8940,1.5,0.86,1111122 
ENP,ioos.station.NOAA.NDBC:LRIF1:1,2017-12-15T08:00:00Z,25.2840,-80.8940,1.5,0.85,1111122 
ENP,ioos.station.NOAA.NDBC:LRIF1:1,2017-12-15T09:00:00Z,25.2840,-80.8940,1.5,0.85,1111122 
ENP,ioos.station.NOAA.NDBC:LRIF1:1,2017-12-15T10:00:00Z,25.2840,-80.8940,1.5,1.08,1111122 
ENP,ioos.station.NOAA.NDBC:LRIF1:1,2017-12-15T12:00:00Z,25.2840,-80.8940,1.5,1.72,1111122 
ENP,ioos.station.NOAA.NDBC:LRIF1:1,2017-12-15T13:00:00Z,25.2840,-80.8940,1.5,1.8,1111122 